sat.trackr.live / text

‹ back to catalog

STARLINK-30073

NORAD 56840 · 2023-079T

PAYLOAD ACTIVE UNKNOWN

§ Identity

Operator
Country
US
Launch date
2023-06-04
Launch site
AFETR
Launch vehicle
Mass (kg)
RCS (m²)

Purposes: comms

External: N2YO · Heavens-Above · Gunter

§ Orbital elements

Epoch: 2026-09-20T22:00:03.000096Z

Period
94.27 min
Inclination
43.0022°
Eccentricity
0.0001317
Mean motion
15.27564254 rev/d
Perigee alt
482.2 km
Apogee alt
484.0 km
Semi-major
6,861.2 km
B*
1.1925e-3
RAAN
269.8387°
Arg perigee
264.5986°
Mean anomaly
1.9667°
Rev number
586

§ Raw data

STARLINK-300731 56840U 23079T   26263.91670139  .00032682  00000+0  11925-2 0  99992 56840  43.0022 269.8387 0001317 264.5986   1.9667 15.27564254  5860

JSON: /api/v1/satellites/56840 · /tle

For live sub-satellite position, see the globe view (requires WebGL).

§ Visibility from observer

Set your observer location to see the next 7 days of passes ≥ 10°. The values pass through the URL so the page stays shareable.

No JS? Fill the form by hand. The geolocation button needs JavaScript.